Weather History for Marion, IN

Change the Weather History Date:

Monday, September 2, 2013

  Actual Average (KMIE) Record (KMIE)
Temperature  
Mean Temperature 70 °F 70 °F  
Max Temperature 79 °F 81 °F 94 °F (2011)
Min Temperature 61 °F 59 °F 46 °F (1967)
Degree Days  
Heating Degree Days 0 1  
Month to date heating degree days 2  
Since 1 July heating degree days 12  
Cooling Degree Days 6 6  
Month to date cooling degree days 12  
Year to date cooling degree days 846  
Growing Degree Days 20 (Base 50)    
Moisture  
Dew Point 62 °F    
Average Humidity 77    
Maximum Humidity 98    
Minimum Humidity 41    
Precipitation  
Precipitation 0.03 in 0.10 in 0.98 in (1980)
Month to date precipitation 0.21  
Year to date precipitation 28.12  
Sea Level Pressure  
Sea Level Pressure 29.87 in    
Wind  
Wind Speed 5 mph (NW)    
Max Wind Speed 13 mph    
Max Gust Speed 18 mph    
Visibility 5 miles    
Events Fog , Rain    
T = Trace of Precipitation, MM = Missing Value Source: NWS Daily Summary

Daily Weather History Graph

Daily Weather History Graph

Search for Another Location

Airport:

Trip Planner

Search our weather history database for the weather conditions in past years. The results will help you decide how hot, cold, wet, or windy it might be!

Date:

Astronomy

Sep. 02, 2013 Rise Set
Actual Time 7:11 AM EDT 8:12 PM EDT
Civil Twilight 6:43 AM EDT 8:40 PM EDT
Nautical Twilight 6:09 AM EDT 9:13 PM EDT
Astronomical Twilight 5:35 AM EDT 9:48 PM EDT
Moon 4:27 AM EDT (9/2) 6:26 PM EDT (9/2)
Length of Visible Light 13h 57m
Length of Day
13h 01m
Waning Crescent, 8% of the Moon is Illuminated
Sep 2
Waning Crescent
Sep 5
New
Sep 12
First Quarter
Sep 19
Full
Sep 26
Last Quarter

Hourly Weather History & Observations

Time (EDT) Temp. Dew Point Humidity Pressure Visibility Wind Dir Wind Speed Gust Speed Precip Events Conditions
12:15 AM 64.2 °F 63.3 °F 97% 29.82 in 0.2 mi SSW 3.5 mph - N/A Fog Fog
12:35 AM 64.2 °F 63.3 °F 97% 29.81 in 0.8 mi SW 5.8 mph - N/A   Overcast
12:55 AM 65.5 °F 64.6 °F 97% 29.82 in 2.0 mi WSW 4.6 mph - N/A   Clear
1:15 AM 65.5 °F 64.6 °F 97% 29.82 in 2.5 mi WSW 3.5 mph - N/A   Clear
1:35 AM 65.3 °F 64.4 °F 97% 29.80 in 2.5 mi Calm Calm - 0.01 in   Clear
1:55 AM 64.9 °F 64.0 °F 97% 29.79 in 4.0 mi South 3.5 mph - 0.01 in   Clear
2:15 AM 64.4 °F 63.5 °F 97% 29.79 in 2.5 mi SW 4.6 mph - N/A   Clear
2:35 AM 64.6 °F 63.7 °F 97% 29.80 in 2.5 mi WSW 3.5 mph - N/A   Clear
2:55 AM 64.6 °F 63.7 °F 97% 29.81 in 2.5 mi Calm Calm - N/A   Clear
3:15 AM 64.4 °F 63.5 °F 97% 29.81 in 3.0 mi Calm Calm - N/A   Clear
3:35 AM 64.9 °F 64.2 °F 98% 29.81 in 3.0 mi Calm Calm - N/A   Mostly Cloudy
3:55 AM 66.2 °F 65.3 °F 97% 29.81 in 3.0 mi South 3.5 mph - N/A Rain Rain
4:15 AM 66.7 °F 66.0 °F 98% 29.81 in 4.0 mi Calm Calm - N/A   Overcast
4:35 AM 66.2 °F 65.7 °F 98% 29.81 in 3.0 mi SSW 3.5 mph - N/A   Mostly Cloudy
4:55 AM 65.7 °F 64.9 °F 98% 29.80 in 3.0 mi WSW 3.5 mph - N/A   Mostly Cloudy
5:15 AM 64.9 °F 64.4 °F 98% 29.81 in 2.5 mi SW 4.6 mph - 0.01 in   Scattered Clouds
5:35 AM 65.1 °F 64.4 °F 98% 29.80 in 2.5 mi WSW 3.5 mph - 0.01 in   Clear
5:55 AM 65.3 °F 64.4 °F 97% 29.81 in 2.5 mi SW 5.8 mph - 0.01 in   Clear
6:15 AM 65.5 °F 64.8 °F 98% 29.82 in 2.5 mi WSW 4.6 mph - N/A   Clear
6:35 AM 66.0 °F 65.3 °F 98% 29.82 in 2.0 mi West 3.5 mph - N/A   Mostly Cloudy
6:55 AM 66.2 °F 65.5 °F 98% 29.82 in 2.0 mi West 4.6 mph - N/A   Overcast
7:15 AM 66.9 °F 66.0 °F 97% 29.84 in 1.8 mi West 4.6 mph - N/A   Overcast
7:35 AM 67.6 °F 66.7 °F 97% 29.84 in 1.5 mi WNW 4.6 mph - N/A   Overcast
7:55 AM 68.0 °F 67.1 °F 97% 29.85 in 1.5 mi WNW 4.6 mph - N/A   Overcast
8:15 AM 68.2 °F 67.5 °F 98% 29.85 in 1.5 mi Calm Calm - N/A   Overcast
8:35 AM 68.4 °F 67.6 °F 98% 29.85 in 2.0 mi NW 3.5 mph - N/A   Overcast
8:55 AM 68.7 °F 68.0 °F 98% 29.86 in 3.0 mi NW 4.6 mph - N/A   Overcast
9:15 AM 68.9 °F 68.0 °F 97% 29.86 in 4.0 mi NW 3.5 mph - N/A   Overcast
9:35 AM 69.4 °F 68.5 °F 97% 29.86 in 4.0 mi NW 3.5 mph - 0.01 in   Overcast
9:55 AM 70.3 °F 68.7 °F 95% 29.88 in 5.0 mi NNW 4.6 mph - 0.01 in   Overcast
10:15 AM 71.4 °F 68.2 °F 89% 29.88 in 5.0 mi NNW 3.5 mph - N/A   Overcast
10:35 AM 72.3 °F 68.2 °F 87% 29.89 in 7.0 mi North 6.9 mph - N/A   Overcast
10:55 AM 72.9 °F 67.3 °F 83% 29.90 in 7.0 mi North 4.6 mph - N/A   Overcast
11:15 AM 73.8 °F 67.6 °F 81% 29.90 in 10.0 mi North 10.4 mph - N/A   Mostly Cloudy
11:35 AM 75.2 °F 64.9 °F 70% 29.91 in 7.0 mi North 6.9 mph - N/A   Scattered Clouds
11:55 AM 75.7 °F 64.2 °F 67% 29.91 in 7.0 mi NNW 9.2 mph - N/A   Mostly Cloudy
12:15 PM 75.9 °F 63.7 °F 66% 29.91 in 7.0 mi NNW 5.8 mph - N/A   Mostly Cloudy
12:35 PM 76.5 °F 63.3 °F 64% 29.91 in 7.0 mi NNW 11.5 mph 16.1 mph N/A   Scattered Clouds
12:55 PM 77.0 °F 62.4 °F 61% 29.91 in 7.0 mi NNW 6.9 mph - N/A   Scattered Clouds
1:15 PM 77.7 °F 63.0 °F 60% 29.91 in 7.0 mi North 6.9 mph - N/A   Scattered Clouds
1:35 PM 78.1 °F 61.2 °F 56% 29.90 in 7.0 mi NNW 10.4 mph - N/A   Scattered Clouds
1:55 PM 78.8 °F 60.8 °F 54% 29.90 in 10.0 mi NNW 9.2 mph - N/A   Mostly Cloudy
2:15 PM 78.8 °F 60.6 °F 54% 29.90 in 7.0 mi NNW 6.9 mph - N/A   Scattered Clouds
2:35 PM 78.6 °F 59.9 °F 52% 29.90 in 7.0 mi NW 11.5 mph 17.3 mph N/A   Mostly Cloudy
2:55 PM 79.3 °F 58.6 °F 49% 29.90 in 7.0 mi NNW 12.7 mph 17.3 mph N/A   Mostly Cloudy
3:15 PM 79.5 °F 57.9 °F 47% 29.89 in 7.0 mi NNW 8.1 mph - N/A   Mostly Cloudy
3:35 PM 79.2 °F 57.7 °F 48% 29.89 in 10.0 mi NW 8.1 mph - N/A   Mostly Cloudy
3:55 PM 79.9 °F 57.0 °F 45% 29.89 in 7.0 mi North 8.1 mph - N/A   Mostly Cloudy
4:15 PM 79.3 °F 55.8 °F 44% 29.89 in 7.0 mi NW 8.1 mph - N/A   Scattered Clouds
4:35 PM 78.6 °F 56.1 °F 46% 29.88 in 7.0 mi North 8.1 mph - N/A   Scattered Clouds
4:55 PM 79.3 °F 55.4 °F 44% 29.88 in 10.0 mi North 12.7 mph 17.3 mph N/A   Mostly Cloudy
5:15 PM 79.3 °F 53.8 °F 41% 29.88 in 7.0 mi NNW 9.2 mph - N/A   Scattered Clouds
5:35 PM 78.6 °F 56.1 °F 46% 29.88 in 4.0 mi North 9.2 mph - N/A   Haze
5:55 PM 76.3 °F 56.7 °F 51% 29.89 in 5.0 mi NNW 4.6 mph - N/A   Haze
6:15 PM 76.6 °F 56.7 °F 50% 29.89 in 7.0 mi NNW 12.7 mph 18.4 mph N/A   Scattered Clouds
6:35 PM 76.5 °F 56.3 °F 50% 29.89 in 5.0 mi NNW 8.1 mph - N/A   Haze
6:55 PM 75.9 °F 56.5 °F 51% 29.89 in 5.0 mi North 9.2 mph - N/A   Haze
7:15 PM 75.4 °F 56.3 °F 51% 29.89 in 7.0 mi North 6.9 mph - N/A   Clear
7:35 PM 74.1 °F 55.9 °F 53% 29.89 in 5.0 mi North 5.8 mph - N/A   Haze
7:55 PM 72.7 °F 55.9 °F 56% 29.89 in 7.0 mi North 4.6 mph - N/A   Clear
8:15 PM 71.1 °F 56.1 °F 59% 29.90 in 7.0 mi North 4.6 mph - N/A   Clear
8:35 PM 69.6 °F 56.5 °F 63% 29.91 in 7.0 mi North 4.6 mph - N/A   Clear
8:55 PM 68.4 °F 56.7 °F 66% 29.91 in 7.0 mi Calm Calm - N/A   Clear
9:15 PM 66.0 °F 57.6 °F 74% 29.93 in 7.0 mi North 4.6 mph - N/A   Clear
9:35 PM 66.6 °F 57.2 °F 72% 29.93 in 7.0 mi North 4.6 mph - N/A   Clear
9:55 PM 66.0 °F 57.2 °F 73% 29.94 in 7.0 mi North 6.9 mph - N/A   Clear
10:15 PM 65.3 °F 57.2 °F 75% 29.95 in 10.0 mi North 6.9 mph - N/A   Clear
10:35 PM 64.6 °F 57.2 °F 77% 29.96 in 7.0 mi North 4.6 mph - N/A   Clear
10:55 PM 64.0 °F 57.0 °F 78% 29.96 in 7.0 mi North 6.9 mph - N/A   Scattered Clouds
11:15 PM 63.1 °F 56.7 °F 79% 29.96 in 10.0 mi North 5.8 mph - N/A   Scattered Clouds
11:35 PM 62.4 °F 56.3 °F 80% 29.96 in 7.0 mi North 3.5 mph - N/A   Scattered Clouds
11:55 PM 61.5 °F 56.3 °F 83% 29.97 in 10.0 mi Calm Calm - N/A   Clear